This demonstration page uses our WeatherBlox Daily Observations layout. Learn more.

Left ArrowRight Arrow

40.92945, -100.16068

Hourly Observations for February 5, 2022

Temp ( °F °C ) Dew Point ( °F °C ) Humidity (%) Winds ( mph kmh ) Pressure ( in mb ) Visibility ( mi km ) Precip ( " mm )
12:15 am 00:15 Clear 18 -8 8 -13.1 67 67 ESE 6 9 30.45 1031 10 16 0.00 0.00
12:35 am 00:35 Clear 18 -7.9 9 -12.8 68 68 ESE 6 9 30.43 1030 10 16 0.00 0.00
12:55 am 00:55 Clear 17 -8.1 8 -13.1 68 68 ESE 3 6 30.42 1030 10 16 0.00 0.00
1:15 am 01:15 Clear 17 -8.2 9 -12.9 69 69 ESE 5 7 30.41 1030 10 16 0.00 0.00
1:35 am 01:35 Clear 16 -8.8 8 -13.2 71 71 SE 6 9 30.41 1030 10 16 0.00 0.00
1:55 am 01:55 Clear 18 -7.9 10 -12.4 70 70 S 7 11 30.38 1029 10 16 0.00 0.00
2:15 am 02:15 Clear 24 -4.6 12 -10.9 62 62 S 5 7 30.33 1027 10 16 0.00 0.00
2:35 am 02:35 Clear 25 -4 13 -10.7 60 60 SSW 7 11 30.32 1027 10 16 0.00 0.00
2:55 am 02:55 Clear 26 -3.6 13 -10.5 59 59 SW 6 9 30.31 1027 10 16 0.00 0.00
3:15 am 03:15 Clear 25 -4 12 -10.9 59 59 W 5 7 30.31 1026 10 16 0.00 0.00
3:35 am 03:35 Clear 25 -4 12 -10.9 59 59 WSW 7 11 30.30 1026 10 16 0.00 0.00
3:55 am 03:55 Clear 25 -4 12 -11 59 59 WSW 5 7 30.28 1025 10 16 0.00 0.00
4:15 am 04:15 Clear 25 -3.9 12 -11 58 58 Calm 30.27 1025 10 16 0.00 0.00
4:35 am 04:35 Clear 25 -3.7 13 -10.8 58 58 Calm 30.25 1025 10 16 0.00 0.00
4:55 am 04:55 Clear 26 -3.2 12 -10.9 56 56 Calm 30.24 1024 10 16 0.00 0.00
5:15 am 05:15 Clear 26 -3.2 12 -11 55 55 W 7 11 30.23 1024 10 16 0.00 0.00
5:35 am 05:35 Clear 24 -4.6 13 -10.7 63 63 NW 7 11 30.24 1024 10 16 0.00 0.00
5:55 am 05:55 Clear 21 -6 11 -11.5 65 65 W 8 13 30.25 1024 10 16 0.00 0.00
6:15 am 06:15 Clear 20 -6.7 11 -11.4 70 70 WSW 6 9 30.26 1025 10 16 0.00 0.00
6:35 am 06:35 Clear 21 -6.2 11 -11.5 66 66 SW 6 9 30.24 1024 10 16 0.00 0.00
6:55 am 06:55 Clear 19 -7 11 -11.7 69 69 SW 6 9 30.24 1024 10 16 0.00 0.00
7:15 am 07:15 Clear 18 -7.9 11 -11.9 73 73 Calm 30.24 1024 10 16 0.00 0.00
7:35 am 07:35 Clear 20 -6.9 11 -11.5 70 70 WSW 3 6 30.22 1023 10 16 0.00 0.00
7:55 am 07:55 Sunny 18 -7.7 10 -12 72 72 W 5 7 30.24 1024 10 16 0.00 0.00
8:15 am 08:15 Sunny 20 -6.7 12 -11.3 70 70 WSW 6 9 30.23 1024 10 16 0.00 0.00
8:35 am 08:35 Sunny 25 -4 14 -9.9 64 64 Calm 30.19 1022 10 16 0.00 0.00
8:55 am 08:55 Sunny 28 -2.5 15 -9.5 59 59 WSW 6 9 30.17 1022 10 16 0.00 0.00
9:15 am 09:15 Sunny 29 -1.6 15 -9.6 55 55 WSW 6 9 30.15 1021 10 16 0.00 0.00
9:35 am 09:35 Sunny 30 -1 15 -9.5 53 53 W 7 11 30.16 1021 10 16 0.00 0.00
9:55 am 09:55 Sunny 32 -0.1 15 -9.2 51 51 W 6 9 30.14 1021 10 16 0.00 0.00
10:15 am 10:15 Sunny 33 0.7 16 -9 49 49 W 7 11 30.13 1020 10 16 0.00 0.00
10:35 am 10:35 Sunny 37 3 17 -8.5 43 43 W 5 7 30.11 1020 10 16 0.00 0.00
10:55 am 10:55 Sunny 40 4.6 17 -8.4 39 39 NNW 6 9 30.08 1019 10 16 0.00 0.00
11:15 am 11:15 Sunny 43 5.9 18 -7.9 37 37 NW 5 7 30.06 1018 10 16 0.00 0.00
11:35 am 11:35 Sunny 45 7.4 18 -7.7 34 34 WNW 10 17 30.05 1017 10 16 0.00 0.00
11:55 am 11:55 Sunny 48 8.7 17 -8.1 30 30 WNW 12 19 30.03 1017 10 16 0.00 0.00
12:15 pm 12:15 Sunny 49 9.7 18 -7.8 29 29 WNW 14 22 29.99 1016 10 16 0.00 0.00
12:35 pm 12:35 Sunny 50 10.2 18 -7.9 27 27 WNW 13 20 29.99 1016 10 16 0.00 0.00
12:55 pm 12:55 Sunny 52 11.1 18 -7.6 26 26 NW 9 15 29.96 1015 10 16 0.00 0.00
1:15 pm 13:15 Sunny 54 12.1 19 -7.4 25 25 WNW 12 19 29.94 1014 10 16 0.00 0.00
1:35 pm 13:35 Sunny 55 12.8 19 -7.3 24 24 WNW 9 15 29.93 1013 10 16 0.00 0.00
1:55 pm 13:55 Sunny 56 13.3 19 -7.1 24 24 WNW 10 17 29.91 1013 10 16 0.00 0.00
2:15 pm 14:15 Sunny 57 14 20 -6.8 23 23 WNW 10 17 29.89 1012 10 16 0.00 0.00
2:35 pm 14:35 Sunny 58 14.6 22 -5.7 24 24 NW 10 17 29.88 1012 10 16 0.00 0.00
2:55 pm 14:55 Sunny 58 14.2 21 -5.9 25 25 NNW 9 15 29.87 1012 10 16 0.00 0.00
3:15 pm 15:15 Sunny 57 13.7 22 -5.8 26 26 NNW 9 15 29.88 1012 10 16 0.00 0.00
3:35 pm 15:35 Sunny 57 13.9 21 -6.1 25 25 NNW 8 13 29.88 1012 10 16 0.00 0.00
3:55 pm 15:55 Sunny 57 13.9 22 -5.8 25 25 N 10 17 29.89 1012 10 16 0.00 0.00
4:15 pm 16:15 Sunny 56 13.5 21 -6 25 25 N 5 7 29.89 1012 10 16 0.00 0.00
4:35 pm 16:35 Sunny 56 13.4 21 -6 26 26 NE 8 13 29.89 1012 10 16 0.00 0.00
4:55 pm 16:55 Sunny 55 13 21 -6.1 26 26 ENE 7 11 29.89 1012 10 16 0.00 0.00
5:15 pm 17:15 Sunny 54 12 20 -6.5 27 27 E 5 7 29.90 1013 10 16 0.00 0.00
5:35 pm 17:35 Sunny 52 11.1 20 -6.5 29 29 E 3 6 29.92 1013 10 16 0.00 0.00
5:55 pm 17:55 Sunny 48 8.8 19 -7.1 32 32 SE 3 6 29.93 1014 10 16 0.00 0.00
6:15 pm 18:15 Clear 47 8.2 19 -7 34 34 SSE 5 7 29.94 1014 10 16 0.00 0.00
6:35 pm 18:35 Partly Cloudy 44 6.6 18 -7.6 36 36 SSE 3 6 29.96 1015 10 16 0.00 0.00
6:55 pm 18:55 Mostly Cloudy 43 6 20 -6.8 40 40 S 3 6 29.98 1015 10 16 0.00 0.00
7:15 pm 19:15 Cloudy 37 2.9 16 -8.9 42 42 Calm 30.02 1017 10 16 0.00 0.00
7:35 pm 19:35 Cloudy 37 2.9 17 -8.3 44 44 W 7 11 30.03 1017 10 16 0.00 0.00
7:55 pm 19:55 Partly Cloudy 33 0.7 15 -9.3 48 48 NW 7 11 30.06 1018 10 16 0.00 0.00
8:15 pm 20:15 Mostly Cloudy 34 1.2 15 -9.2 46 46 NNE 6 9 30.06 1018 10 16 0.00 0.00
8:35 pm 20:35 Cloudy 33 0.6 15 -9.5 47 47 Calm 30.06 1018 10 16 0.00 0.00
8:55 pm 20:55 Mostly Cloudy 36 2.2 18 -8 47 47 Calm 30.06 1018 10 16 0.00 0.00
9:15 pm 21:15 Partly Cloudy 36 2.4 17 -8.5 45 45 W 10 17 30.05 1018 10 16 0.00 0.00
9:35 pm 21:35 Cloudy 36 2 16 -8.9 45 45 NNW 10 17 30.07 1018 10 16 0.00 0.00
9:55 pm 21:55 Mostly Cloudy 32 0 14 -10 47 47 NW 6 9 30.09 1019 10 16 0.00 0.00
10:15 pm 22:15 Clear 28 -2.3 12 -10.9 52 52 W 6 9 30.11 1020 10 16 0.00 0.00
10:35 pm 22:35 Clear 27 -2.7 12 -11 53 53 W 8 13 30.12 1020 10 16 0.00 0.00
10:55 pm 22:55 Clear 27 -2.8 13 -10.3 57 57 W 9 15 30.13 1020 10 16 0.00 0.00
11:15 pm 23:15 Clear 28 -2.4 13 -10.3 55 55 W 8 13 30.13 1020 10 16 0.00 0.00
11:35 pm 23:35 Clear 26 -3.1 13 -10.5 57 57 WNW 9 15 30.15 1021 10 16 0.00 0.00
11:55 pm 23:55 Clear 28 -2.3 14 -10.1 56 56 WNW 10 17 30.15 1021 10 16 0.00 0.00

Powered by AerisWeather